DW7854 Weather Reports


Display with metric or nautical units.
time (UTC)temp
F
wind
direction
speed
MPH
gust
MPH
rain 1hr
in
rain 24hr
in
rain mn
in
humidity
%
barometer
mb
20260903035604 82 110 1.0 5.0 0.00 0.00 0.00 76 1013.3
20260903034704 82 119 1.0 5.0 0.00 0.00 0.00 75 1013.3
20260903034503 82 135 1.0 4.0 0.00 0.00 0.00 75 1013.0
20260903033804 82 130 1.0 5.0 0.00 0.00 0.00 75 1013.4
20260903033008 82 148 0.0 4.0 0.00 0.00 0.00 75 1013.1
20260903032904 82 138 2.0 3.0 0.00 0.00 0.00 75 1013.4
20260903032003 83 145 2.0 5.0 0.00 0.00 0.00 74 1013.4
20260903031502 82 153 2.0 6.0 0.00 0.00 0.00 74 1013.1
20260903031103 83 149 2.0 6.0 0.00 0.00 0.00 73 1013.5
20260903030203 83 142 2.0 4.0 0.00 0.00 0.00 73 1013.5
20260903030008 83 159 1.0 5.0 0.00 0.00 0.00 73 1013.2
20260903025306 83 149 2.0 5.0 0.00 0.00 0.00 73 1013.6
20260903024502 83 134 2.0 6.0 0.00 0.00 0.00 72 1013.2
20260903023504 84 149 2.0 5.0 0.00 0.00 0.00 72 1013.4
20260903023007 83 142 3.0 5.0 0.00 0.00 0.00 71 1013.1
20260903021704 84 144 1.0 3.0 0.00 0.00 0.00 70 1013.2
20260903021603 84 159 0.0 3.0 0.00 0.00 0.00 70 1012.9
20260903020803 85 151 1.0 3.0 0.00 0.00 0.00 70 1013.1
20260903020006 85 166 0.0 3.0 0.00 0.00 0.00 69 1012.7
20260903015904 85 146 2.0 3.0 0.00 0.00 0.00 69 1013.0
20260903015004 85 134 1.0 3.0 0.00 0.00 0.00 69 1012.9
20260903014605 85 135 1.0 5.0 0.00 0.00 0.00 69 1012.6
20260903013203 86 138 1.0 4.0 0.00 0.00 0.00 68 1012.7
20260903013004 86 156 1.0 3.0 0.00 0.00 0.00 68 1012.4
20260903012306 86 137 1.0 4.0 0.00 0.00 0.00 68 1012.7
20260903011502 86 128 1.0 4.0 0.00 0.00 0.00 68 1012.4
20260903011404 86 146 2.0 4.0 0.00 0.00 0.00 67 1012.8
20260903010503 87 148 2.0 5.0 0.00 0.00 0.00 67 1012.7
20260903005603 87 149 3.0 5.0 0.00 0.00 0.00 66 1012.7
20260903004703 88 153 4.0 8.0 0.00 0.00 0.00 66 1012.6
20260903004507 87 160 2.0 8.0 0.00 0.00 0.00 66 1012.3
20260903003106 88 150 3.0 7.0 0.00 0.00 0.00 64 1012.2
20260903002904 89 139 4.0 7.0 0.00 0.00 0.00 64 1012.5
20260903002004 89 153 6.0 11.0 0.00 0.00 0.00 64 1012.5
20260903001504 89 152 7.0 11.0 0.00 0.00 0.00 63 1012.1
20260903001104 89 169 7.0 13.0 0.00 0.00 0.00 63 1012.4
20260903000204 89 172 8.0 12.0 0.00 0.00 0.00 62 1012.3
20260903000008 89 186 8.0 12.0 0.00 0.00 0.00 62 1011.9
20260902235305 90 157 7.0 12.0 0.00 0.00 0.00 62 1012.2
20260902234609 90 164 9.0 13.0 0.00 0.00 0.00 62 1012.0
20260902234403 90 164 7.0 13.0 0.00 0.00 0.00 62 1012.2
20260902233503 91 151 6.0 12.0 0.00 0.00 0.00 61 1012.2
20260902233008 91 171 6.0 12.0 0.00 0.00 0.00 61 1011.7
20260902232604 91 153 6.0 11.0 0.00 0.00 0.00 60 1012.0
20260902231704 92 181 8.0 14.0 0.00 0.00 0.00 60 1012.2
20260902231604 91 156 8.0 14.0 0.00 0.00 0.00 60 1011.8
20260902230803 93 174 7.0 11.0 0.00 0.00 0.00 58 1012.1
20260902230105 93 184 6.0 14.0 0.00 0.00 0.00 57 1011.8
20260902225904 94 162 8.0 14.0 0.00 0.00 0.00 58 1012.1
20260902224505 94 161 5.0 15.0 0.00 0.00 0.00 55 1011.7
20260902224103 95 163 9.0 15.0 0.00 0.00 0.00 55 1012.0
20260902223203 96 170 8.0 14.0 0.00 0.00 0.00 54 1011.9
20260902223004 95 149 7.0 14.0 0.00 0.00 0.00 54 1011.6
20260902221509 96 152 7.0 11.0 0.00 0.00 0.00 52 1011.4
20260902221403 96 152 7.0 11.0 0.00 0.00 0.00 52 1011.7
20260902220503 97 142 7.0 12.0 0.00 0.00 0.00 51 1011.9
20260902220106 97 121 5.0 12.0 0.00 0.00 0.00 51 1011.6
20260902215603 97 156 7.0 12.0 0.00 0.00 0.00 50 1012.0
20260902214703 98 165 6.0 14.0 0.00 0.00 0.00 49 1012.0
20260902214606 98 155 6.0 14.0 0.00 0.00 0.00 49 1011.6
20260902213004 97 111 3.0 10.0 0.00 0.00 0.00 48 1011.8
20260902212903 98 144 6.0 10.0 0.00 0.00 0.00 47 1012.1
20260902212003 98 141 5.0 12.0 0.00 0.00 0.00 47 1012.2
20260902211503 98 132 7.0 12.0 0.00 0.00 0.00 47 1012.0
20260902211103 98 136 5.0 11.0 0.00 0.00 0.00 47 1012.4
20260902210203 98 148 7.0 11.0 0.00 0.00 0.00 47 1012.6
20260902210106 98 172 6.0 12.0 0.00 0.00 0.00 47 1012.3
20260902205306 98 126 6.0 12.0 0.00 0.00 0.00 48 1012.8
20260902204509 98 86 7.0 11.0 0.00 0.00 0.00 47 1012.6
20260902204403 98 139 6.0 12.0 0.00 0.00 0.00 48 1012.9
20260902203503 98 152 6.0 13.0 0.00 0.00 0.00 46 1013.1
20260902203105 98 127 6.0 16.0 0.00 0.00 0.00 46 1012.7
20260902202603 98 148 6.0 15.0 0.00 0.00 0.00 47 1013.1
20260902201703 98 161 8.0 14.0 0.00 0.00 0.00 47 1013.2
20260902201611 98 183 7.0 14.0 0.00 0.00 0.00 47 1012.8
20260902200803 98 160 8.0 14.0 0.00 0.00 0.00 47 1013.3
20260902200009 97 137 8.0 14.0 0.00 0.00 0.00 46 1013.0
20260902195003 98 153 7.0 12.0 0.00 0.00 0.00 47 1013.3
20260902194605 97 163 6.0 12.0 0.00 0.00 0.00 46 1013.1
20260902194103 97 142 6.0 12.0 0.00 0.00 0.00 49 1013.5
20260902193203 97 165 6.0 11.0 0.00 0.00 0.00 51 1013.8
20260902193004 97 161 6.0 14.0 0.00 0.00 0.00 51 1013.4
20260902191505 97 181 5.0 12.0 0.00 0.00 0.00 48 1013.5
20260902191403 98 148 5.0 10.0 0.00 0.00 0.00 48 1013.9
20260902190503 97 158 5.0 12.0 0.00 0.00 0.00 51 1013.9
20260902190104 97 128 5.0 12.0 0.00 0.00 0.00 51 1013.5
20260902185603 97 151 5.0 10.0 0.00 0.00 0.00 52 1013.9
20260902184504 96 119 3.0 14.0 0.00 0.00 0.00 52 1013.7
20260902183803 96 141 4.0 10.0 0.00 0.00 0.00 53 1014.2
20260902183106 95 103 4.0 12.0 0.00 0.00 0.00 52 1014.1
20260902182903 95 140 5.0 15.0 0.00 0.00 0.00 52 1014.5
20260902182004 95 149 6.0 15.0 0.00 0.00 0.00 53 1014.7
20260902181506 95 145 5.0 13.0 0.00 0.00 0.00 54 1014.4
20260902180203 95 145 5.0 13.0 0.00 0.00 0.00 53 1015.0
20260902180008 95 158 6.0 11.0 0.00 0.00 0.00 53 1014.7
20260902174505 94 201 6.0 12.0 0.00 0.00 0.00 55 1015.0
20260902173503 93 146 7.0 15.0 0.00 0.00 0.00 56 1015.4
20260902173104 93 105 5.0 15.0 0.00 0.00 0.00 56 1015.1
20260902172603 93 138 6.0 10.0 0.00 0.00 0.00 56 1015.5
20260902171703 93 127 7.0 13.0 0.00 0.00 0.00 56 1015.8
20260902171505 92 80 7.0 13.0 0.00 0.00 0.00 56 1015.4
20260902170803 93 153 6.0 12.0 0.00 0.00 0.00 54 1015.8
20260902170004 92 126 6.0 12.0 0.00 0.00 0.00 58 1015.5
20260902165903 92 153 7.0 12.0 0.00 0.00 0.00 58 1015.9
20260902165003 92 158 7.0 14.0 0.00 0.00 0.00 58 1016.0
20260902164608 91 163 6.0 14.0 0.00 0.00 0.00 59 1015.7
20260902164106 91 146 7.0 13.0 0.00 0.00 0.00 60 1016.1
20260902163203 92 157 8.0 13.0 0.00 0.00 0.00 60 1016.1
20260902163104 91 186 8.0 13.0 0.00 0.00 0.00 59 1015.8
20260902162306 92 160 6.0 10.0 0.00 0.00 0.00 60 1016.1
20260902161504 91 121 6.0 13.0 0.00 0.00 0.00 60 1015.8
20260902161403 91 157 6.0 13.0 0.00 0.00 0.00 61 1016.1
20260902160503 91 139 6.0 11.0 0.00 0.00 0.00 62 1016.2
20260902160010 90 174 6.0 9.0 0.00 0.00 0.00 62 1015.7
20260902154703 90 122 5.0 10.0 0.00 0.00 0.00 63 1016.1
20260902154607 89 148 3.0 10.0 0.00 0.00 0.00 62 1015.8
20260902153803 90 136 4.0 9.0 0.00 0.00 0.00 63 1016.0
20260902153105 88 144 4.0 9.0 0.00 0.00 0.00 66 1015.7
20260902152903 89 135 4.0 9.0 0.00 0.00 0.00 66 1016.0
20260902152003 88 107 4.0 8.0 0.00 0.00 0.00 68 1016.0
20260902151506 87 113 3.0 8.0 0.00 0.00 0.00 70 1015.6
20260902151103 87 95 4.0 9.0 0.00 0.00 0.00 70 1015.9
20260902150203 87 136 5.0 10.0 0.00 0.00 0.00 70 1015.8
20260902150106 87 57 3.0 10.0 0.00 0.00 0.00 70 1015.4
20260902145305 86 129 4.0 7.0 0.00 0.00 0.00 73 1015.8
20260902144505 86 64 3.0 9.0 0.00 0.00 0.00 73 1015.4
20260902144403 86 91 3.0 8.0 0.00 0.00 0.00 73 1015.8
20260902143503 86 164 3.0 6.0 0.00 0.00 0.00 75 1015.7
20260902143009 85 155 3.0 7.0 0.00 0.00 0.00 75 1015.4
20260902141703 85 156 4.0 9.0 0.00 0.00 0.00 78 1015.9
20260902141505 84 160 3.0 9.0 0.00 0.00 0.00 78 1015.5
20260902140803 84 134 3.0 7.0 0.00 0.00 0.00 78 1015.9
20260902140009 83 165 3.0 7.0 0.00 0.00 0.00 78 1015.7
20260902135903 84 159 3.0 7.0 0.00 0.00 0.00 79 1016.1
20260902135003 82 124 2.0 6.0 0.00 0.00 0.00 80 1015.9
20260902134603 82 157 2.0 6.0 0.00 0.00 0.00 81 1015.5
20260902134103 82 108 3.0 7.0 0.00 0.00 0.00 82 1015.9
20260902133203 80 147 1.0 3.0 0.00 0.00 0.00 84 1015.9
20260902133109 80 146 0.0 3.0 0.00 0.00 0.00 84 1015.5
20260902132306 79 318 0.0 2.0 0.00 0.00 0.00 86 1015.9
20260902131503 77 319 0.0 3.0 0.00 0.00 0.00 87 1015.6
20260902131403 78 337 0.0 3.0 0.00 0.00 0.00 87 1016.0
20260902130503 76 25 1.0 2.0 0.00 0.00 0.00 88 1016.0
20260902130005 75 10 0.0 2.0 0.00 0.00 0.00 89 1015.6
20260902124703 75 16 0.0 1.0 0.00 0.00 0.00 90 1016.0
20260902124604 74 15 0.0 1.0 0.00 0.00 0.00 90 1015.6
20260902123017 74 36 0.0 3.0 0.00 0.00 0.00 89 1015.5
20260902122903 74 51 1.0 3.0 0.00 0.00 0.00 89 1015.8
20260902122003 74 56 0.0 2.0 0.00 0.00 0.00 89 1015.7
20260902121508 74 55 0.0 2.0 0.00 0.00 0.00 89 1015.2
20260902121103 74 42 0.0 2.0 0.00 0.00 0.00 89 1015.5
20260902120203 74 67 1.0 3.0 0.00 0.00 0.00 89 1015.5
20260902120103 74 32 0.0 3.0 0.00 0.00 0.00 89 1015.2
20260902115307 74 47 1.0 3.0 0.00 0.00 0.00 89 1015.5
20260902114605 74 32 0.0 2.0 0.00 0.00 0.00 88 1015.1
20260902113503 74 39 1.0 3.0 0.00 0.00 0.00 88 1015.3
20260902113005 74 26 1.0 3.0 0.00 0.00 0.00 88 1015.0
20260902112603 75 104 1.0 3.0 0.00 0.00 0.00 88 1015.3
20260902111703 75 0 0.0 0.0 0.00 0.00 0.00 88 1015.3
20260902111514 74 156 0.0 0.0 0.00 0.00 0.00 88 1014.9
20260902110019 75 156 0.0 0.0 0.00 0.00 0.00 87 1015.0
20260902105903 75 156 0.0 1.0 0.00 0.00 0.00 87 1015.3
20260902105003 75 155 1.0 2.0 0.00 0.00 0.00 87 1015.3
20260902104612 75 156 0.0 2.0 0.00 0.00 0.00 86 1014.9
20260902104103 76 156 0.0 1.0 0.00 0.00 0.00 85 1015.2
20260902103203 76 155 1.0 2.0 0.00 0.00 0.00 86 1015.1
20260902103007 75 156 0.0 2.0 0.00 0.00 0.00 86 1014.8
20260902102307 76 155 1.0 2.0 0.00 0.00 0.00 85 1015.2
20260902101605 76 156 1.0 2.0 0.00 0.00 0.00 85 1014.7
20260902101403 76 155 1.0 2.0 0.00 0.00 0.00 85 1015.1
20260902100104 76 156 0.0 0.0 0.00 0.00 0.00 85 1014.7
20260902094504 76 156 0.0 0.0 0.00 0.00 0.00 84 1014.5
20260902093803 76 156 0.0 1.0 0.00 0.00 0.00 84 1014.8
20260902093003 76 156 0.0 2.0 0.00 0.00 0.00 84 1014.5
20260902092903 76 156 0.0 2.0 0.00 0.00 0.00 84 1014.8
20260902092003 76 155 0.0 2.0 0.00 0.00 0.00 83 1014.8
20260902091504 76 156 0.0 2.0 0.00 0.00 0.00 83 1014.5
20260902091103 76 155 1.0 2.0 0.00 0.00 0.00 83 1014.6
20260902090203 77 0 0.0 0.0 0.00 0.00 0.00 82 1014.7
20260902090006 76 156 0.0 0.0 0.00 0.00 0.00 82 1014.4
20260902085306 77 0 0.0 0.0 0.00 0.00 0.00 81 1014.7
20260902084505 76 156 0.0 0.0 0.00 0.00 0.00 81 1014.5
20260902084403 77 0 0.0 0.0 0.00 0.00 0.00 81 1014.8
20260902083503 77 0 0.0 0.0 0.00 0.00 0.00 81 1014.8
20260902083111 77 156 0.0 0.0 0.00 0.00 0.00 81 1014.5
20260902082603 77 0 0.0 0.0 0.00 0.00 0.00 80 1014.8
20260902081703 78 0 0.0 0.0 0.00 0.00 0.00 80 1014.8
20260902081508 77 156 0.0 0.0 0.00 0.00 0.00 79 1014.5
20260902080803 78 0 0.0 0.0 0.00 0.00 0.00 79 1014.8
20260902080008 78 156 0.0 0.0 0.00 0.00 0.00 78 1014.4
20260902074604 78 156 0.0 0.0 0.00 0.00 0.00 78 1014.5
20260902074103 79 0 0.0 0.0 0.00 0.00 0.00 77 1014.8
20260902073203 79 155 0.0 1.0 0.00 0.00 0.00 76 1014.9
20260902073105 79 156 0.0 1.0 0.00 0.00 0.00 76 1014.6
20260902071503 80 156 0.0 1.0 0.00 0.00 0.00 74 1014.7
20260902071403 80 156 0.0 1.0 0.00 0.00 0.00 74 1015.0
20260902070503 80 0 0.0 0.0 0.00 0.00 0.00 73 1015.1
20260902070108 80 156 0.0 0.0 0.00 0.00 0.00 73 1014.7
20260902065603 81 0 0.0 0.0 0.00 0.00 0.00 72 1015.2
20260902064703 81 0 0.0 0.0 0.00 0.00 0.00 71 1015.2
20260902064502 81 156 0.0 1.0 0.00 0.00 0.00 71 1014.9
20260902063803 81 156 0.0 1.0 0.00 0.00 0.00 71 1015.2
20260902063109 81 156 0.0 2.0 0.00 0.00 0.00 70 1014.7
20260902062903 81 155 1.0 2.0 0.00 0.00 0.00 70 1015.1
20260902062003 82 155 1.0 3.0 0.00 0.00 0.00 70 1015.1
20260902061614 81 156 0.0 3.0 0.00 0.00 0.00 70 1014.7
20260902061103 82 155 2.0 4.0 0.00 0.00 0.00 69 1015.1
20260902060203 82 154 2.0 3.0 0.00 0.00 0.00 69 1015.1
20260902060005 82 154 1.0 4.0 0.00 0.00 0.00 68 1014.7
20260902055306 83 154 3.0 4.0 0.00 0.00 0.00 68 1014.9
20260902054616 83 144 2.0 5.0 0.00 0.00 0.00 67 1014.5
20260902054403 83 148 3.0 8.0 0.00 0.00 0.00 67 1014.8
20260902053503 84 152 2.0 6.0 0.00 0.00 0.00 66 1014.8
20260902053016 83 153 1.0 5.0 0.00 0.00 0.00 66 1014.5
20260902051703 84 143 3.0 5.0 0.00 0.00 0.00 65 1014.6
20260902051604 84 197 3.0 5.0 0.00 0.00 0.00 65 1014.3
20260902050803 84 146 4.0 7.0 0.00 0.00 0.00 64 1014.6
20260902050006 84 125 4.0 7.0 0.00 0.00 0.00 64 1014.2
20260902045903 84 145 4.0 6.0 0.00 0.00 0.00 64 1014.4
20260902045003 84 142 3.0 6.0 0.00 0.00 0.00 63 1014.5
20260902044509 84 129 2.0 7.0 0.00 0.00 0.00 63 1014.2
20260902043203 85 122 1.0 4.0 0.00 0.00 0.00 62 1014.4
20260902043005 85 135 2.0 4.0 0.00 0.00 0.00 62 1014.0
20260902042308 85 133 2.0 3.0 0.00 0.00 0.00 61 1014.3
20260902041508 85 150 2.0 5.0 0.00 0.00 0.00 61 1014.1
20260902041403 86 124 2.0 5.0 0.00 0.00 0.00 61 1014.4
20260902040503 86 123 2.0 5.0 0.00 0.00 0.00 61 1014.4
20260902040103 85 88 1.0 5.0 0.00 0.00 0.00 60 1014.1